CHINASAT 10 (ZX 10)

Last updated on Sat Jun 29 2024 00:02:38 GMT+0000 (Coordinated Universal Time)

1 37677U 11026A 24180.56645186 -.00000349 00000+0 00000+0 0 9991 2 37677 0.0613 264.4958 0003762 249.0842 77.9712 1.00274885 47758
UTC large
Height (km)
Speed (km/s)
/
Latitude / Longitude
Inclination (degrees)
Orbital Period (minutes)
Azimuth
Elevation
Range (km)
Doppler Factor

Next 0 passes for location: London (51.5072 / 0.1276)

Sorry there are no passes over London.
CHINASAT 10 (ZX 10)